星链-32202 (STARLINK-32202)

导读 | 豆包AI

STARLINK-32202是美国SpaceX公司星链(Starlink)星座的卫星,于2024年8月20日发射,属于星链低轨互联网通信星座组网卫星,该星座旨在为全球提供宽带互联网接入服务。作为量产型通信卫星,它搭载Ku/Ka波段通信载荷,配备霍尔推进器,具备自主避撞能力,寿命末期会主动离轨在大气层焚毁,运行于近地轨道,支撑全球互联网络覆盖。

基本信息
目录编号:
60595
目录名称:
STARLINK-32202
国际标识:
2024-150N
轨道中心:
EARTH
卫星名称:
星链-32202 (STARLINK-32202)
卫星全名:
星链-32202 (STARLINK-32202)
卫星状态:
在轨 (已飞行572 天)
发射日期:
2024-08-20 UTC
国别 :
美国 (US)
星等 :
--
轨道信息
数据来源 国际轨道数据
星历时间: 2026-03-15T14:35:41+0800
8小时前
查看轨道信息
半长轴: 6853.377km
偏心率: 0.0001005
轨道倾角: 53.159°
近地点辐角 86.617°
升交点赤经 281.282°
平近点角 273.495°
近地点: 474.551km
远地点: 475.929km
周期: 94.106分钟
每日圈数: 15.301919
详细信息
卫星平台:
Starlink v2.0 mini
运营商:
太空探索技术公司
运营商所在国:
美国
制造商(研发单位):
太空探索技术公司
制造商所在国:
美国
使用方式:
暂无
卫星简介
星链(Starlink)计划是由太空探索技术公司(SpaceX)提出的一个巨型低轨卫星互联网星座项目,计划在2019年至2024年间在太空搭建由约1.2万颗卫星组成的“星链”网络,其中1584颗将部署在地球上空550千米处的近地轨道,并从2020年开始工作。该卫星仍在工作。
2D轨道图
3D轨道图
轨道高度分析图
轨道倾角分析图
轨道综合分析图
查看轨道综合分析图